GW0290 Weather Reports


time (UTC)temp
F
wind
direction
speed
knots
gust
knots
rain 1hr
in
rain 24hr
in
rain mn
in
humidity
%
barometer
mb
20260510184010 84 194 0.9 6.1 0.00 0.06 0.03 40 1015.2
20260510183512 85 70 0.0 5.2 0.00 0.06 0.03 41 1015.2
20260510183032 84 340 0.0 5.2 0.00 0.06 0.03 40 1015.4
20260510182512 85 146 0.0 4.3 0.00 0.06 0.03 41 1015.3
20260510182013 85 103 0.9 4.3 0.00 0.06 0.03 42 1015.4
20260510181534 84 0 0.0 3.5 0.00 0.06 0.03 45 1015.4
20260510181016 82 0 0.9 4.3 0.00 0.06 0.03 45 1015.4
20260510180511 82 0 0.0 4.3 0.00 0.06 0.03 45 1015.4
20260510180031 84 175 0.0 4.3 0.00 0.06 0.03 44 1015.3
20260510175510 84 130 0.0 3.5 0.00 0.06 0.03 46 1015.4
20260510175015 84 221 0.9 3.5 0.00 0.06 0.03 45 1015.5
20260510174530 84 126 0.0 4.3 0.00 0.06 0.03 46 1015.5
20260510174012 84 0 0.0 4.3 0.00 0.06 0.03 47 1015.4
20260510173511 84 158 0.0 4.3 0.00 0.06 0.03 46 1015.4
20260510173031 83 172 0.0 5.2 0.00 0.06 0.03 49 1015.5
20260510172510 82 136 0.9 5.2 0.00 0.06 0.03 46 1015.6
20260510172014 82 255 0.9 3.5 0.01 0.06 0.03 48 1015.6
20260510171531 82 165 0.9 4.3 0.01 0.06 0.03 50 1015.6
20260510171011 81 178 0.9 4.3 0.01 0.06 0.03 47 1015.6
20260510170509 82 0 0.0 3.5 0.01 0.06 0.03 48 1015.7
20260510170031 80 0 0.0 3.5 0.01 0.06 0.03 49 1015.7
20260510165510 81 153 0.9 5.2 0.01 0.06 0.03 48 1015.7
20260510165011 81 166 0.0 5.2 0.01 0.06 0.03 48 1015.8
20260510164539 81 0 0.0 2.6 0.01 0.06 0.03 49 1015.8
20260510164014 80 0 0.9 2.6 0.01 0.06 0.03 49 1015.8
20260510163513 80 0 0.9 2.6 0.01 0.06 0.03 50 1015.9
20260510163030 80 0 0.9 3.5 0.01 0.06 0.03 49 1015.8
20260510162510 79 57 0.9 3.5 0.01 0.06 0.03 51 1015.9
20260510162013 80 137 0.0 2.6 0.00 0.05 0.02 48 1016.0
20260510161531 80 0 0.0 3.5 0.00 0.05 0.02 53 1016.0
20260510161013 79 255 0.9 4.3 0.00 0.05 0.02 52 1016.0
20260510160510 79 82 1.7 4.3 0.00 0.05 0.02 52 1016.0
20260510160032 79 67 0.0 3.5 0.00 0.05 0.02 54 1016.0
20260510155510 79 68 0.9 3.5 0.00 0.06 0.02 53 1016.1
20260510155011 79 0 0.9 3.5 0.00 0.06 0.02 53 1016.2
20260510154544 80 281 0.0 3.5 0.00 0.06 0.02 56 1016.3
20260510154014 78 0 0.0 3.5 0.00 0.06 0.02 56 1016.4
20260510153515 79 67 0.9 3.5 0.00 0.06 0.02 55 1016.6
20260510153028 78 0 0.9 2.6 0.00 0.06 0.02 55 1016.6
20260510152509 78 169 0.9 2.6 0.00 0.06 0.02 57 1016.5
20260510152014 78 0 0.0 2.6 0.00 0.06 0.02 56 1016.5
20260510151530 79 0 0.0 2.6 0.00 0.06 0.02 56 1016.4
20260510151011 79 261 0.9 2.6 0.00 0.06 0.02 57 1016.2
20260510150514 78 296 0.0 2.6 0.00 0.06 0.02 56 1016.3
20260510150032 78 0 0.0 2.6 0.00 0.06 0.02 56 1016.3
20260510145512 77 30 0.0 2.6 0.00 0.06 0.02 61 1016.2
20260510145014 77 0 0.0 3.5 0.00 0.06 0.02 60 1016.2
20260510144540 76 0 0.0 3.5 0.00 0.06 0.02 62 1016.2
20260510144013 76 110 0.9 3.5 0.00 0.06 0.02 62 1016.2
20260510143513 76 43 0.9 3.5 0.00 0.06 0.02 61 1016.2
20260510143030 76 273 0.0 2.6 0.00 0.06 0.02 63 1016.2
20260510142509 76 0 0.0 2.6 0.00 0.06 0.02 63 1016.2
20260510142014 75 289 0.9 2.6 0.00 0.06 0.02 63 1016.1
20260510141530 75 0 0.0 2.6 0.00 0.06 0.02 65 1016.1
20260510141010 75 0 0.0 2.6 0.00 0.06 0.02 66 1016.2
20260510140515 75 0 0.9 2.6 0.00 0.06 0.02 67 1016.2
20260510140031 74 0 0.0 1.7 0.00 0.06 0.02 73 1016.1
20260510135509 74 0 0.0 0.0 0.00 0.06 0.02 73 1016.1
20260510135012 74 0 0.0 0.0 0.00 0.06 0.02 74 1016.2
20260510134530 73 0 0.0 0.0 0.00 0.06 0.02 76 1016.1
20260510134010 73 0 0.0 0.0 0.00 0.06 0.02 76 1016.1
20260510133512 73 0 0.0 0.0 0.00 0.06 0.02 78 1016.1
20260510133030 72 0 0.0 0.0 0.01 0.06 0.02 79 1016.2
20260510132516 72 0 0.0 0.0 0.01 0.06 0.02 78 1016.0
20260510132016 73 0 0.0 0.0 0.01 0.06 0.02 81 1016.0
20260510131542 72 0 0.0 0.0 0.01 0.06 0.02 85 1015.9
20260510131012 71 0 0.0 0.0 0.01 0.06 0.02 89 1015.9
20260510130514 70 0 0.0 0.0 0.01 0.06 0.02 90 1015.8
20260510130030 69 0 0.0 0.0 0.01 0.06 0.02 92 1015.6
20260510125509 68 0 0.0 0.0 0.01 0.07 0.02 93 1015.6
20260510125012 67 0 0.0 0.0 0.01 0.07 0.02 94 1015.6
20260510124530 67 0 0.0 0.0 0.01 0.07 0.02 95 1015.6
20260510124009 66 0 0.0 0.0 0.01 0.07 0.02 96 1015.6
20260510123514 65 0 0.0 0.0 0.01 0.07 0.02 96 1015.6
20260510123028 65 0 0.0 0.0 0.00 0.06 0.01 96 1015.6
20260510122515 64 0 0.0 0.0 0.00 0.06 0.01 96 1015.6
20260510122016 64 0 0.0 0.0 0.00 0.06 0.01 96 1015.5
20260510121536 64 0 0.0 0.0 0.00 0.06 0.01 96 1015.4
20260510121015 64 0 0.0 0.0 0.00 0.06 0.01 96 1015.4
20260510120512 63 0 0.0 0.0 0.00 0.06 0.01 96 1015.3
20260510120035 63 0 0.0 0.0 0.00 0.06 0.01 96 1015.4
20260510115510 62 0 0.0 0.9 0.00 0.06 0.01 96 1015.3
20260510115015 61 0 0.0 0.9 0.00 0.06 0.01 96 1015.3
20260510114536 61 0 0.0 0.9 0.00 0.06 0.01 96 1015.3
20260510114017 60 0 0.0 0.0 0.00 0.06 0.01 96 1015.2
20260510113514 60 0 0.0 0.0 0.00 0.06 0.01 95 1015.1
20260510113031 59 0 0.0 0.0 0.00 0.06 0.01 95 1015.0
20260510112515 59 0 0.0 0.0 0.00 0.06 0.01 95 1014.9
20260510112008 59 0 0.0 0.0 0.00 0.06 0.01 95 1014.8
20260510111531 59 0 0.0 0.0 0.00 0.06 0.01 95 1014.9
20260510111017 59 0 0.0 0.0 0.00 0.06 0.01 95 1014.7
20260510110512 59 0 0.0 0.0 0.00 0.06 0.01 94 1014.7
20260510110030 59 0 0.0 0.0 0.00 0.06 0.01 94 1014.5
20260510105510 59 0 0.0 0.0 0.00 0.06 0.01 94 1014.6
20260510105018 59 0 0.0 0.0 0.00 0.06 0.01 94 1014.3
20260510104532 59 0 0.0 0.0 0.00 0.06 0.01 94 1014.1
20260510104011 59 0 0.0 0.0 0.00 0.06 0.01 94 1014.1
20260510103513 59 0 0.0 0.0 0.00 0.06 0.01 94 1014.1
20260510103029 59 0 0.0 0.0 0.00 0.06 0.01 94 1014.1
20260510102512 59 0 0.0 0.0 0.00 0.06 0.01 94 1014.0
20260510102018 59 0 0.0 0.0 0.00 0.06 0.01 94 1013.9
20260510101532 59 0 0.0 0.0 0.00 0.06 0.01 94 1013.9
20260510101014 59 0 0.0 0.0 0.00 0.06 0.01 94 1013.8
20260510100512 59 0 0.0 0.0 0.00 0.06 0.01 94 1013.8
20260510100031 59 0 0.0 0.0 0.00 0.06 0.01 94 1013.6
20260510095513 59 0 0.0 0.0 0.00 0.06 0.01 94 1013.7
20260510095013 59 0 0.0 0.9 0.00 0.06 0.01 94 1013.7
20260510094535 59 0 0.0 0.9 0.00 0.06 0.01 94 1013.7
20260510094010 59 0 0.0 0.9 0.00 0.06 0.01 94 1013.6
20260510093515 59 0 0.0 0.9 0.00 0.06 0.01 94 1013.3
20260510093032 59 0 0.0 2.6 0.00 0.06 0.01 94 1013.3
20260510092511 59 0 0.0 2.6 0.00 0.06 0.01 94 1013.3
20260510092014 59 183 0.0 2.6 0.00 0.06 0.01 94 1013.2
20260510091533 59 0 0.0 0.0 0.00 0.06 0.01 94 1012.9
20260510091015 59 0 0.0 0.0 0.00 0.06 0.01 94 1012.9
20260510090514 59 0 0.0 0.0 0.00 0.06 0.01 94 1012.9
20260510090030 59 0 0.0 0.0 0.00 0.06 0.01 94 1012.8
20260510085513 59 0 0.0 0.0 0.01 0.07 0.01 94 1012.8
20260510085011 59 0 0.0 0.0 0.01 0.07 0.01 94 1012.8
20260510084535 59 0 0.0 0.0 0.01 0.07 0.01 94 1012.7
20260510084010 59 0 0.0 0.0 0.01 0.07 0.01 94 1012.7
20260510083516 59 0 0.0 0.0 0.01 0.07 0.01 94 1012.6
20260510083030 59 0 0.0 0.0 0.01 0.07 0.01 94 1012.8
20260510082509 59 0 0.0 0.0 0.01 0.07 0.01 94 1012.8
20260510082014 59 0 0.0 0.0 0.01 0.07 0.01 94 1012.7
20260510081532 59 0 0.0 0.0 0.01 0.07 0.01 94 1012.6
20260510081012 59 0 0.0 0.0 0.01 0.07 0.01 93 1012.5
20260510080514 59 0 0.0 0.0 0.01 0.07 0.01 93 1012.6
20260510080034 59 0 0.0 0.0 0.01 0.07 0.01 93 1012.7
20260510075510 59 0 0.0 0.0 0.00 0.06 0.00 93 1012.6
20260510075011 59 0 0.0 0.0 0.00 0.06 0.00 93 1012.7
20260510074536 59 0 0.0 0.0 0.00 0.06 0.00 93 1012.6
20260510074011 60 0 0.0 0.0 0.00 0.06 0.00 93 1012.5
20260510073511 60 0 0.0 0.0 0.00 0.06 0.00 93 1012.6
20260510073030 60 0 0.0 0.0 0.00 0.06 0.00 93 1012.6
20260510072510 60 0 0.0 0.0 0.00 0.06 0.00 93 1012.5
20260510072015 60 0 0.0 0.0 0.00 0.06 0.00 93 1012.5
20260510071531 60 0 0.0 0.0 0.00 0.06 0.00 93 1012.5
20260510071012 60 0 0.0 0.0 0.00 0.06 0.00 93 1012.4
20260510070512 60 0 0.0 0.0 0.00 0.06 0.00 93 1012.4
20260510070029 60 0 0.0 0.0 0.00 0.06 0.00 93 1012.5
20260510065511 60 0 0.0 0.0 0.00 0.06 0.00 93 1012.6
20260510065011 60 0 0.0 0.0 0.00 0.06 0.00 93 1012.5
20260510064545 60 0 0.0 0.0 0.00 0.06 0.00 93 1012.5
20260510064012 60 0 0.0 0.0 0.00 0.06 0.00 93 1012.6
20260510063511 60 0 0.0 0.0 0.00 0.06 0.00 92 1012.5
20260510063032 60 0 0.0 0.0 0.00 0.06 0.00 93 1012.5
20260510062510 60 0 0.0 0.0 0.00 0.06 0.00 92 1012.4
20260510062014 60 0 0.0 0.0 0.00 0.06 0.00 92 1012.4
20260510061533 60 0 0.0 0.0 0.00 0.06 0.00 92 1012.4
20260510061010 60 0 0.0 0.0 0.00 0.06 0.00 92 1012.4
20260510060515 60 0 0.0 0.0 0.00 0.06 0.00 92 1012.5
20260510060029 60 0 0.0 0.0 0.00 0.06 0.00 92 1012.6
20260510055512 60 0 0.0 0.0 0.00 0.06 0.00 92 1012.6
20260510055012 60 0 0.0 0.0 0.00 0.06 0.00 92 1012.7
20260510054532 60 0 0.0 0.0 0.00 0.06 0.00 92 1012.8
20260510054013 60 0 0.0 0.0 0.00 0.06 0.00 92 1012.8
20260510053515 60 0 0.0 0.0 0.00 0.06 0.00 92 1012.8
20260510053042 60 0 0.0 0.0 0.00 0.06 0.00 92 1012.8
20260510052510 61 0 0.0 0.0 0.00 0.06 0.00 92 1012.9
20260510052016 61 0 0.0 0.0 0.00 0.06 0.00 92 1012.9
20260510051545 61 0 0.0 0.0 0.00 0.06 0.00 92 1013.0
20260510051017 61 0 0.0 0.0 0.00 0.06 0.00 91 1013.1
20260510050512 61 0 0.0 0.0 0.00 0.06 0.00 92 1013.0
20260510050032 61 0 0.0 0.0 0.00 0.06 0.00 91 1012.9
20260510045512 61 0 0.0 0.0 0.00 0.07 0.00 91 1013.0
20260510045010 61 0 0.0 0.0 0.00 0.07 0.00 91 1013.1
20260510044530 61 0 0.0 0.0 0.00 0.07 0.00 91 1013.2
20260510044012 61 0 0.0 0.0 0.00 0.07 0.00 91 1013.1
20260510043513 61 0 0.0 0.0 0.00 0.07 0.00 91 1013.1
20260510043032 61 0 0.0 0.0 0.00 0.07 0.00 91 1013.0
20260510042515 61 0 0.0 0.0 0.00 0.07 0.00 91 1013.0
20260510042012 61 0 0.0 0.0 0.00 0.07 0.00 91 1013.0
20260510041534 61 0 0.0 0.0 0.00 0.07 0.00 90 1013.0
20260510041017 61 0 0.0 0.0 0.00 0.07 0.00 90 1012.9
20260510040510 61 0 0.0 0.0 0.00 0.07 0.00 90 1013.0
20260510040036 61 0 0.0 0.0 0.00 0.07 0.00 90 1013.1
20260510035509 61 0 0.0 0.0 0.00 0.07 0.07 90 1013.0
20260510035013 61 0 0.0 0.0 0.00 0.07 0.07 89 1012.8
20260510034532 61 0 0.0 0.0 0.00 0.07 0.07 89 1012.8
20260510034010 61 0 0.0 0.0 0.00 0.07 0.07 89 1012.8
20260510033513 61 0 0.0 0.0 0.00 0.07 0.07 89 1012.8
20260510033032 61 0 0.0 0.0 0.00 0.07 0.07 89 1012.8
20260510032512 61 0 0.0 0.0 0.01 0.07 0.07 88 1012.9
20260510032017 61 0 0.0 0.0 0.01 0.07 0.07 88 1012.8
20260510031533 62 0 0.0 0.0 0.01 0.07 0.07 88 1012.8
20260510031011 62 0 0.0 0.0 0.01 0.07 0.07 88 1012.8
20260510030518 62 0 0.0 0.0 0.01 0.07 0.07 88 1012.8
20260510030031 62 0 0.0 0.0 0.01 0.07 0.07 87 1012.7
20260510025510 62 0 0.0 0.0 0.01 0.07 0.07 87 1012.7
20260510025015 62 0 0.0 0.0 0.01 0.07 0.07 87 1012.6
20260510024532 63 0 0.0 0.0 0.01 0.07 0.07 87 1012.7
20260510024013 63 0 0.0 0.0 0.01 0.07 0.07 87 1012.7
20260510023514 63 0 0.0 0.0 0.01 0.07 0.07 87 1012.7
20260510023032 63 0 0.0 0.0 0.01 0.07 0.07 86 1012.6
20260510022510 63 0 0.0 0.0 0.00 0.06 0.06 86 1012.6
20260510022017 64 0 0.0 0.0 0.00 0.06 0.06 86 1012.7
20260510021534 64 0 0.0 0.0 0.00 0.06 0.06 86 1012.6
20260510021009 64 0 0.0 0.0 0.00 0.06 0.06 86 1012.6
20260510020515 64 0 0.0 0.0 0.00 0.06 0.06 86 1012.5
20260510020032 65 0 0.0 0.0 0.00 0.06 0.06 86 1012.5
20260510015511 65 0 0.0 0.0 0.00 0.07 0.06 85 1012.6
20260510015011 65 0 0.0 0.0 0.00 0.07 0.06 85 1012.7
20260510014532 65 0 0.0 0.9 0.00 0.07 0.06 85 1012.7
20260510014010 65 0 0.0 0.9 0.00 0.07 0.06 85 1012.5
20260510013514 66 0 0.0 0.0 0.00 0.07 0.06 84 1012.4
20260510013030 66 0 0.0 0.0 0.00 0.07 0.06 84 1012.3
20260510012509 66 0 0.0 0.0 0.00 0.07 0.06 84 1012.2
20260510012015 66 0 0.0 0.0 0.00 0.07 0.06 84 1012.1
20260510011531 67 0 0.0 0.0 0.00 0.07 0.06 83 1012.0
20260510011010 67 0 0.0 0.0 0.00 0.07 0.06 83 1011.9
20260510010510 67 0 0.0 0.0 0.00 0.07 0.06 83 1011.8
20260510010030 67 0 0.0 0.0 0.00 0.07 0.06 82 1011.8
20260510005510 68 0 0.0 0.0 0.00 0.07 0.06 82 1011.8
20260510005020 68 0 0.0 0.0 0.00 0.07 0.06 82 1011.7
20260510004532 68 0 0.0 0.0 0.00 0.07 0.06 82 1011.6
20260510004011 68 0 0.0 0.0 0.00 0.07 0.06 81 1011.6
20260510003514 69 0 0.0 0.0 0.00 0.07 0.06 81 1011.5
20260510003031 69 0 0.0 0.0 0.00 0.07 0.06 81 1011.5
20260510002513 69 0 0.0 0.0 0.00 0.07 0.06 81 1011.5
20260510002010 69 0 0.0 0.0 0.00 0.07 0.06 81 1011.6
20260510001530 70 0 0.0 0.0 0.00 0.07 0.06 80 1011.7
20260510001011 70 0 0.0 0.0 0.00 0.07 0.06 80 1011.7
20260510000512 70 0 0.0 0.0 0.00 0.07 0.06 80 1011.7
20260510000029 71 0 0.0 0.0 0.00 0.07 0.06 79 1011.7
20260509235509 71 0 0.0 0.0 0.00 0.07 0.06 79 1011.6
20260509235013 71 0 0.0 0.0 0.00 0.07 0.06 79 1011.6
20260509234529 71 0 0.0 0.0 0.00 0.07 0.06 78 1011.5
20260509234011 71 0 0.0 0.0 0.00 0.07 0.06 78 1011.5
20260509233511 72 0 0.0 0.0 0.00 0.07 0.06 78 1011.5
20260509233032 72 0 0.0 0.0 0.00 0.07 0.06 77 1011.3
20260509232514 72 0 0.0 0.0 0.00 0.07 0.06 77 1011.0
20260509232013 72 0 0.0 0.0 0.00 0.07 0.06 77 1011.0
20260509231534 72 0 0.0 0.0 0.00 0.07 0.06 77 1011.1
20260509231010 73 0 0.0 0.0 0.01 0.07 0.06 76 1011.1
20260509230515 73 0 0.0 1.7 0.01 0.07 0.06 76 1010.8
20260509230030 73 0 0.0 1.7 0.01 0.07 0.06 75 1010.8
20260509225512 73 223 0.0 3.5 0.01 0.08 0.06 75 1010.8
20260509225019 73 0 0.0 3.5 0.01 0.08 0.06 75 1010.7
20260509224530 73 242 0.9 3.5 0.01 0.08 0.06 74 1010.7
20260509224010 73 0 0.0 3.5 0.01 0.08 0.06 74 1010.6
20260509223514 73 13 0.9 3.5 0.01 0.08 0.06 73 1010.8
20260509223032 74 0 0.0 0.9 0.01 0.08 0.06 74 1010.9
20260509222509 74 0 0.0 0.9 0.01 0.08 0.06 74 1010.8
20260509222011 74 190 0.0 0.9 0.01 0.08 0.06 74 1010.8
20260509221529 74 0 0.0 1.7 0.01 0.08 0.06 74 1010.9
20260509221010 74 0 0.0 1.7 0.00 0.07 0.05 73 1011.1
20260509220514 74 0 0.0 2.6 0.00 0.07 0.05 73 1011.1
20260509220040 73 0 0.0 2.6 0.00 0.07 0.05 73 1010.9
20260509215515 74 257 0.0 3.5 0.00 0.07 0.05 73 1010.9
20260509215013 74 0 0.0 3.5 0.00 0.07 0.05 73 1010.7
20260509214533 74 178 0.0 3.5 0.00 0.07 0.05 72 1011.0
20260509214015 74 0 0.0 5.2 0.00 0.07 0.05 72 1010.9
20260509213512 74 155 0.9 5.2 0.00 0.07 0.05 72 1010.7
20260509213033 74 0 0.9 4.3 0.00 0.07 0.05 72 1010.7
20260509212510 74 177 0.0 4.3 0.00 0.07 0.05 72 1010.9
20260509212013 74 312 0.9 4.3 0.00 0.07 0.05 73 1010.8
20260509211534 74 284 0.0 3.5 0.00 0.07 0.05 73 1010.8
20260509211012 74 244 0.9 6.1 0.00 0.07 0.05 72 1010.7
20260509210511 74 288 0.9 6.1 0.00 0.07 0.05 71 1010.7
20260509210031 74 171 0.9 6.1 0.00 0.07 0.05 71 1010.7
20260509205511 74 0 0.0 6.1 0.00 0.08 0.05 72 1010.6
20260509205013 74 202 0.9 4.3 0.00 0.08 0.05 73 1010.5
20260509204530 73 0 0.0 4.3 0.00 0.08 0.05 75 1010.5
20260509204014 73 203 0.9 4.3 0.00 0.08 0.05 73 1010.8
20260509203518 73 0 0.0 1.7 0.00 0.08 0.05 74 1010.7
20260509203037 73 312 0.0 6.1 0.00 0.08 0.05 73 1010.7
20260509202515 73 208 0.0 6.1 0.00 0.08 0.05 72 1010.7
20260509202011 74 169 1.7 6.1 0.00 0.08 0.05 71 1010.7
20260509201532 74 173 0.0 1.7 0.00 0.08 0.05 72 1010.9
20260509201010 74 0 0.0 0.9 0.00 0.08 0.05 72 1010.9
20260509200515 74 0 0.0 1.7 0.00 0.08 0.05 72 1010.8
20260509200036 74 0 0.0 1.7 0.00 0.08 0.05 71 1010.9
20260509195512 74 0 0.0 0.9 0.00 0.08 0.05 70 1011.0
20260509195012 74 0 0.0 1.7 0.00 0.08 0.05 71 1011.0
20260509194545 73 0 0.0 1.7 0.00 0.08 0.05 70 1011.0
20260509194010 73 0 0.0 0.0 0.00 0.08 0.05 72 1011.1
20260509193520 73 0 0.0 0.9 0.00 0.08 0.05 72 1011.0
20260509193037 73 0 0.0 0.9 0.01 0.08 0.05 71 1011.2
20260509192510 73 0 0.0 0.9 0.01 0.08 0.05 71 1011.3
20260509192011 73 0 0.0 2.6 0.01 0.08 0.05 71 1011.4
20260509191534 73 0 0.0 2.6 0.01 0.08 0.05 72 1011.4
20260509191017 73 0 0.0 4.3 0.01 0.08 0.05 71 1011.4
20260509190509 73 198 0.0 6.1 0.01 0.08 0.05 70 1011.3
20260509190032 73 182 0.9 6.1 0.01 0.08 0.05 70 1011.1
20260509185510 73 178 0.9 4.3 0.01 0.09 0.05 69 1011.2
20260509185013 73 0 0.0 4.3 0.01 0.09 0.05 69 1011.2
20260509184536 73 219 0.0 2.6 0.01 0.09 0.05 69 1011.3